Find Starlink 11332

NORAD ID: 61539 Int'l Des: 2024-184 Owner: SPXS Country: US Constellation: starlink operational
別名: STARLINK-11332 [DTC] celestrak
LEOCIRCULAR

現在のビュー

3D地球を読み込み中...

About Starlink 11332

Starlink 11332 (NORAD 61539) is a starlink constellation satellite (v2 mini d2c) launched Oct 15, 2024 by SPXS of US. It operates in LEO, CIRCULAR orbit with a mass of 960.00 kg.

次回通過

Passes for default location (London). Set your location on the main map for personalized predictions.

高度履歴

Loading altitude history...

軌道要素

1 61539U 24184H 26261.55746958 .00001006 00000-0 13161-4 0 9992
2 61539 53.1591 5.2038 0000954 88.5987 271.5140 15.69709240110714
Epoch: Sep 18, 2026 • Age: 51 hours

現在のステータス

高度 364.4 km
遠地点 / 近地点 N/A
速度 7.70 km/s
衛星直下点 47.78°N, 124.25°W
打ち上げ日 Oct 15, 2024
運用期間 1.9 years
タイプ internet

技術仕様

分類 Payload
質量 960.00 kg
乾燥質量 910.00 kg
長さ 0.30 m
スパン 29.00 m
形状 ? Box + pan
製造者 SPXS
バスタイプ Starlink V2MD
フェーズステータス In Orbit
所有者/国 SPXS/US

Most Searched